[[{"header":{"parameterUnit":"m.s-1","parameterCategory":1,"la1":30.2991,"la2":30.254,"lo1":-89.0895,"lo2":-89.0444,"dy":0.0017,"dx":0.0017,"nx":28,"ny":28,"refTime":"2024-07-20T03:00:00:Z","depth":0,"parameterNumber":2,"parameterNumberName":"U-component_of_WINDS"},"data":[0,0,0,0,0,0,0,0,0,0,0,0,0,0,0,0,0,0,0,0,0,0,0,0,0,0,0,0,0,0,0,0,0,0,0,0,0,0,0,0,0,0,0,0,0,0,0,0,0,0,0,0,0,0,0,0,0,0,4.0415,4.0416,0,4.0513,4.0514,4.0515,4.0435,4.0432,4.0429,4.0426,4.0523,4.0529,4.0535,0,0,0,0,0,0,0,0,0,0,0,0,0,4.0157,4.0162,4.0415,4.0417,4.0418,4.0513,4.0514,4.0515,4.0436,4.0432,4.0428,4.0424,4.0521,4.0528,4.0535,0,0,0,0,0,0,0,0,0,0,0,0,0,4.0263,4.0164,4.0415,4.039,4.0388,4.0512,4.0514,4.0516,4.0437,4.0432,4.0427,4.0422,4.0519,4.0528,4.0536,4.0689,0,0,4.0562,4.0566,0,0,0,0,0,0,0,0,4.0257,4.0273,4.0392,4.0392,4.039,4.0457,4.0458,4.0574,4.0438,4.0418,4.0425,4.042,4.0505,4.0515,4.0544,4.0694,4.0698,4.0563,4.0568,4.0572,4.0574,0,0,0,0,0,0,0,4.025,4.0268,4.0454,4.0394,4.0393,4.0372,4.0382,4.048,4.0489,4.042,4.0414,4.0427,4.0504,4.0536,4.0545,4.07,4.0563,4.057,4.0576,4.0579,4.0975,4.0981,0,0,0,0,0,0,4.0245,4.0262,4.0451,4.0457,4.031,4.0381,4.0391,4.0441,4.0487,4.049,4.0431,4.0423,4.0523,4.0536,4.0549,4.0727,4.0572,4.058,4.0585,4.097,4.0977,4.0982,0,0,0,0,0,0,4.024,4.0263,4.0447,4.0358,4.038,4.0391,4.0446,4.0445,4.0477,4.0496,4.0497,4.0462,4.052,4.0536,4.0654,4.073,4.0584,4.0592,4.0964,4.0972,4.098,4.1089,0,0,0,0,0,0,4.0233,4.0262,4.0321,4.036,4.0385,4.0552,4.0451,4.0451,4.0492,4.0482,4.0526,4.0528,4.0517,4.0642,4.0663,4.0739,4.0598,4.0957,4.0967,4.0977,4.1078,4.11,4.1118,0,0,0,0,0,4.0224,4.0349,4.0325,4.0348,4.046,4.0557,4.0571,4.0557,4.0499,4.0557,4.0569,4.0527,4.0719,4.0654,4.0677,4.0757,4.0952,4.0964,4.0976,4.107,4.1095,4.1117,0,0,0,0,0,0,4.0319,4.0354,4.0327,4.0468,4.051,4.0543,4.0617,4.0585,4.0644,4.0632,4.0611,4.0622,4.0744,4.0763,4.0691,4.0906,4.0826,4.0843,4.0889,4.0914,4.0933,4.0924,4.0605,0,0,0,0,0,4.0356,4.0433,4.0459,4.0581,4.0603,4.0607,4.0649,4.0634,4.0676,4.0693,4.0714,4.0755,4.0824,4.0871,4.0936,4.1081,4.1087,4.1148,4.1167,4.1183,4.1197,4.1271,4.1297,4.1022,4.1022,4.1022,0,0,4.0434,4.0462,4.0512,4.0601,4.0631,4.0709,4.0622,4.071,4.0766,4.0706,4.0817,4.0834,4.0879,4.101,4.1069,4.1029,4.1275,4.1199,4.1211,4.1217,4.1286,4.1312,4.1335,4.103,4.1029,4.1028,0,0,4.0615,4.0646,4.0748,4.0781,4.0828,4.0829,4.0854,4.0891,4.09,4.1011,4.0966,4.1033,4.1155,4.1187,4.1219,4.141,4.1371,4.1432,4.1533,4.1605,4.1627,4.1646,4.1709,4.1733,4.1446,4.1447,4.1447,0,4.0705,4.0822,4.0805,4.0895,4.0933,4.0882,4.0984,4.1016,4.1083,4.1109,4.1065,4.1212,4.124,4.1375,4.1421,4.1451,4.1476,4.1425,4.1625,4.1644,4.1662,4.1722,4.1747,4.1453,4.1452,4.1452,4.1451,0,4.0928,4.101,4.1087,4.1151,4.1199,4.1294,4.129,4.134,4.1321,4.1326,4.1438,4.1469,4.1537,4.1569,4.1552,4.1701,4.1674,4.1629,4.1547,4.1695,4.1751,4.1774,4.1463,4.146,4.1458,4.1457,0,0,4.1171,4.1223,4.1252,4.1278,4.1326,4.1387,4.148,4.1546,4.1587,4.1635,4.1709,4.1811,4.1767,4.1804,4.179,4.1854,4.1997,4.1799,4.1799,4.1831,4.2159,4.219,4.2218,4.1973,4.1977,4.1981,4.2153,0,4.1351,4.1511,4.1497,4.1648,4.1721,4.1673,4.1752,4.1788,4.1796,4.1857,4.1864,4.1935,4.1875,4.1896,4.1957,4.1967,4.2062,4.1955,4.2038,4.2042,4.2025,4.2248,4.2283,4.2444,4.2176,4.218,4.2182,0,4.1582,4.1635,4.1793,4.1826,4.1856,4.1928,4.1985,4.2046,4.2085,4.2085,4.2126,4.21,4.2189,4.2108,4.2229,4.2157,4.219,4.22,4.2206,4.221,4.2119,4.2255,4.2496,4.2519,4.2218,4.2215,4.2212,0,4.1737,4.185,4.1957,4.1982,4.2024,4.2075,4.2095,4.2129,4.2169,4.222,4.2244,4.2306,4.2338,4.2385,4.2375,4.2317,4.2497,4.2416,4.2497,4.2497,4.2535,4.2532,4.2781,4.2563,4.2563,4.2562,4.2562,0,4.1937,4.2035,4.2027,4.2093,4.2199,4.2183,4.2288,4.2302,4.2332,4.2398,4.2361,4.2423,4.2408,4.2469,4.2463,4.2561,4.2578,4.2578,4.2574,4.2579,4.2579,4.2598,4.2586,4.2569,4.2567,4.2566,4.2565,0,4.2128,4.2128,4.2241,4.2271,4.2281,4.2358,4.2382,4.2443,4.2447,4.253,4.2549,4.2554,4.2624,4.2619,4.2699,4.2693,4.2814,4.28,4.2801,4.2796,4.2876,4.2867,4.3143,4.3177,4.2941,4.2943,4.2945,0,4.2254,4.2328,4.2365,4.2406,4.2429,4.2497,4.2536,4.2522,4.2565,4.2613,4.2668,4.2734,4.2786,4.2899,4.2909,4.2968,4.2952,4.3045,4.2961,4.2962,4.2948,4.2942,4.2948,4.306,4.3063,4.3065,4.3067,0,4.2476,4.2471,4.2531,4.2589,4.2637,4.2683,4.2724,4.276,4.275,4.2799,4.287,4.291,4.299,4.3055,4.3111,4.3129,4.3095,4.3094,4.3115,4.3119,4.3115,4.3113,4.2842,4.3087,4.3085,4.3083,4.3082,4.3081,4.2636,4.2697,4.2732,4.2798,4.2827,4.2866,4.2923,4.2933,4.2992,4.3055,4.3043,4.3122,4.3155,4.3227,4.3251,4.331,4.3276,4.3308,4.3316,4.3323,4.333,4.3108,4.3321,4.332,4.332,4.3319,4.3319,0,4.2852,4.2871,4.2932,4.299,4.3042,4.3007,4.305,4.3094,4.3164,4.3198,4.325,4.3329,4.3391,4.3405,4.3464,4.3509,4.3494,4.3524,4.3519,4.3523,4.3359,4.3332,4.3534,4.3534,4.3534,4.3534,4.3534,4.3534,4.297,4.307,4.307,4.3183,4.3201,4.3278,4.3305,4.3339,4.3366,4.3456,4.3507,4.3516,4.3542,4.3602,4.3656,4.3658,4.368,4.3715,4.3711,4.3557,4.3535,4.3514,4.3489,4.3721,4.3721,4.3869,4.3871,4.3872]},{"header":{"parameterUnit":"m.s-1","parameterCategory":1,"la1":30.2991,"la2":30.254,"lo1":-89.0895,"lo2":-89.0444,"dy":0.0017,"dx":0.0017,"nx":28,"ny":28,"refTime":"2024-07-20T03:00:00:Z","depth":0,"parameterNumber":3,"parameterNumberName":"V-component_of_WINDS"},"data":[0,0,0,0,0,0,0,0,0,0,0,0,0,0,0,0,0,0,0,0,0,0,0,0,0,0,0,0,0,0,0,0,0,0,0,0,0,0,0,0,0,0,0,0,0,0,0,0,0,0,0,0,0,0,0,0,0,0,1.7839,1.7839,0,1.7853,1.7853,1.7854,1.7837,1.7836,1.7836,1.7835,1.7848,1.7849,1.785,0,0,0,0,0,0,0,0,0,0,0,0,0,1.7795,1.7796,1.7839,1.7839,1.784,1.7853,1.7853,1.7854,1.7837,1.7836,1.7835,1.7835,1.7848,1.7849,1.785,0,0,0,0,0,0,0,0,0,0,0,0,0,1.7812,1.7796,1.7839,1.7833,1.7832,1.7853,1.7853,1.7854,1.7837,1.7836,1.7835,1.7834,1.7848,1.7849,1.785,1.7878,0,0,1.7855,1.7855,0,0,0,0,0,0,0,0,1.7811,1.7814,1.7834,1.7833,1.7833,1.7842,1.7843,1.7862,1.7837,1.7835,1.7835,1.7834,1.7847,1.7848,1.7853,1.7878,1.7879,1.7855,1.7856,1.7856,1.7857,0,0,0,0,0,0,0,1.781,1.7813,1.7845,1.7834,1.7834,1.7828,1.783,1.7846,1.7846,1.7835,1.7834,1.7836,1.7847,1.7852,1.7853,1.7879,1.7855,1.7856,1.7857,1.7857,1.7924,1.7925,0,0,0,0,0,0,1.781,1.7812,1.7844,1.7845,1.782,1.783,1.7832,1.784,1.7846,1.7846,1.7837,1.7835,1.785,1.7852,1.7854,1.7884,1.7856,1.7858,1.7858,1.7923,1.7924,1.7925,0,0,0,0,0,0,1.7809,1.7813,1.7844,1.7828,1.7832,1.7832,1.7842,1.7841,1.7846,1.7847,1.7847,1.7842,1.7849,1.7852,1.7871,1.7884,1.7858,1.7859,1.7922,1.7923,1.7925,1.7946,0,0,0,0,0,0,1.7808,1.7813,1.7824,1.7829,1.7833,1.7862,1.7843,1.7842,1.7849,1.7847,1.7852,1.7852,1.7849,1.7869,1.7873,1.7886,1.7861,1.7921,1.7923,1.7924,1.7944,1.7948,1.7951,0,0,0,0,0,1.7806,1.783,1.7825,1.7829,1.7847,1.7863,1.7865,1.7861,1.785,1.786,1.7861,1.7852,1.7882,1.7871,1.7875,1.7889,1.792,1.7922,1.7924,1.7942,1.7947,1.7951,0,0,0,0,0,0,1.7827,1.7831,1.7825,1.7851,1.7857,1.786,1.7873,1.7866,1.7875,1.7873,1.7867,1.7868,1.7889,1.7891,1.7878,1.7914,1.7899,1.7902,1.7912,1.7916,1.792,1.7918,1.7862,0,0,0,0,0,1.7835,1.7848,1.785,1.7873,1.7876,1.7874,1.7881,1.7877,1.7883,1.7885,1.7887,1.7892,1.7902,1.7909,1.7919,1.7944,1.7944,1.7955,1.7959,1.7962,1.7964,1.7975,1.7979,1.7932,1.7932,1.7932,0,0,1.7851,1.7854,1.7863,1.7877,1.7881,1.7893,1.7876,1.7891,1.79,1.7887,1.7905,1.7906,1.7912,1.7933,1.7943,1.7936,1.7977,1.7964,1.7967,1.7967,1.7977,1.7982,1.7986,1.7933,1.7933,1.7933,0,0,1.7886,1.789,1.7909,1.7912,1.7918,1.7917,1.7921,1.7925,1.7925,1.7943,1.7933,1.7943,1.7962,1.7965,1.7969,1.8003,1.7994,1.8006,1.8024,1.8035,1.8039,1.8042,1.8052,1.8056,1.8008,1.8009,1.8009,0,1.7905,1.7924,1.7919,1.7933,1.7939,1.7927,1.7944,1.7948,1.7957,1.7961,1.7952,1.7974,1.7977,1.7998,1.8006,1.801,1.8013,1.8005,1.8039,1.8042,1.8045,1.8054,1.8058,1.801,1.801,1.801,1.8009,0,1.7946,1.7959,1.7973,1.7981,1.7988,1.8004,1.8,1.8007,1.8002,1.8001,1.8017,1.802,1.8029,1.8034,1.803,1.8054,1.8049,1.804,1.8025,1.805,1.8059,1.8063,1.8012,1.8011,1.8011,1.801,0,0,1.7996,1.7999,1.8004,1.8006,1.8011,1.8021,1.8035,1.8043,1.8049,1.8055,1.8066,1.8081,1.8071,1.8076,1.8071,1.8081,1.8104,1.807,1.807,1.8075,1.8129,1.8135,1.8139,1.8099,1.81,1.81,1.8128,0,1.803,1.8055,1.8049,1.8074,1.8084,1.8072,1.8084,1.8087,1.8086,1.8094,1.8092,1.8102,1.809,1.8093,1.8101,1.81,1.8115,1.8098,1.8107,1.8108,1.8106,1.8144,1.8151,1.8177,1.8131,1.8132,1.8132,0,1.8073,1.8079,1.8105,1.8105,1.8109,1.812,1.8126,1.8135,1.8137,1.8135,1.8139,1.8132,1.8144,1.8129,1.8145,1.8134,1.8137,1.8137,1.8138,1.8138,1.8121,1.8144,1.8186,1.8189,1.8138,1.8137,1.8137,0,1.8105,1.812,1.8136,1.8139,1.814,1.8147,1.8148,1.815,1.8154,1.8159,1.8162,1.8168,1.8172,1.8176,1.817,1.816,1.8186,1.8171,1.8184,1.8184,1.819,1.8189,1.8231,1.8194,1.8194,1.8194,1.8193,0,1.8142,1.8158,1.815,1.816,1.8176,1.8169,1.8184,1.8184,1.8185,1.8193,1.8183,1.8191,1.8183,1.819,1.8186,1.8198,1.82,1.8198,1.8196,1.8198,1.8199,1.82,1.8198,1.8195,1.8194,1.8194,1.8194,0,1.8181,1.8176,1.8193,1.8192,1.8192,1.8204,1.8202,1.821,1.8207,1.8218,1.822,1.8215,1.8223,1.8217,1.8225,1.8221,1.8238,1.8234,1.8237,1.8235,1.8248,1.8246,1.8291,1.8296,1.8257,1.8257,1.8257,0,1.8205,1.8216,1.8216,1.8221,1.8222,1.823,1.8234,1.8226,1.8231,1.8233,1.8241,1.8247,1.8252,1.8264,1.826,1.8265,1.8261,1.8277,1.8262,1.8263,1.826,1.8259,1.8259,1.8279,1.828,1.828,1.8281,0,1.8247,1.8244,1.825,1.8255,1.826,1.8264,1.8267,1.8271,1.8263,1.8269,1.8276,1.8279,1.8286,1.8291,1.8295,1.8295,1.8286,1.8285,1.8288,1.829,1.829,1.8288,1.8244,1.8284,1.8284,1.8284,1.8283,1.8283,1.8278,1.8287,1.8287,1.8294,1.8295,1.8297,1.8304,1.8301,1.8307,1.8312,1.8307,1.8315,1.8314,1.8318,1.8318,1.8324,1.8317,1.8322,1.8323,1.8324,1.8325,1.829,1.8325,1.8324,1.8324,1.8324,1.8324,0,1.8319,1.8318,1.8324,1.8327,1.8332,1.8323,1.8325,1.8329,1.8337,1.8337,1.8341,1.8348,1.8353,1.835,1.8353,1.8358,1.8354,1.8359,1.8358,1.8358,1.8331,1.8328,1.8362,1.8362,1.8362,1.8362,1.8362,1.8362,1.834,1.8353,1.835,1.8362,1.8361,1.8368,1.837,1.8371,1.8371,1.8379,1.8383,1.8381,1.8379,1.8382,1.8385,1.8384,1.8385,1.8392,1.8389,1.8364,1.836,1.8357,1.8353,1.8392,1.8392,1.8415,1.8415,1.8415]}]]